Terminal Aerodrome Forecast
Issued by NWS

Home | Current Version | Previous Version | Text Only | Print | Product List | Glossary On
Versions: 1 2 3 4 5 6 7 8 9 10 11 12 13 14 15 16 17 18 19 20 21 22 23 24 25 26 27 28 29 30 31
310
FTUS43 KDLH 211739
TAFHYR
TAF
KHYR 211739Z 2118/2218 07005KT P6SM VCSH OVC006
      TEMPO 2118/2121 3SM -RA BR OVC003
     FM212100 VRB03KT 1 1/2SM -DZ BR OVC003
     FM220400 00000KT 1/2SM -DZ FG VV001
     FM221600 35002KT 3/4SM BR OVC003=

USA.gov is the U.S. government's official web portal to all federal, state and local government web resources and services.